{"data":{"norad_id":62678,"epoch":"2026-09-19T11:03:44.968032Z","epoch_age_seconds":104445,"freshness":"FRESH","line1":"1 62678U 25009BX  26262.46093713  .00007949  00000+0  26666-3 0  9993","line2":"2 62678  97.3959 343.9903 0004128   1.1802 358.9448 15.31149911150968","mean_motion":15.31149911,"eccentricity":0.0004128,"inclination_deg":97.3959,"raan_deg":343.9903,"arg_perigee_deg":1.1802,"mean_anomaly_deg":358.9448,"bstar":0.00026666,"rev_number":15096,"period_min":94.046963635294,"perigee_km":469.55237929255,"apogee_km":475.20816635299,"semimajor_km":6850.5172728228,"source":"CELESTRAK","updated_at":"2026-09-20T09:00:34.723424Z"}}